sat.trackr.live / text

‹ back to catalog

PAZ

NORAD 43215 · 2018-020A

PAYLOAD ACTIVE UNKNOWN

§ Identity

Operator
Country
SPN
Launch date
2018-02-22
Launch site
AFWTR
Launch vehicle
Mass (kg)
RCS (m²)

External: N2YO · Heavens-Above · Gunter

§ Orbital elements

Epoch: 2026-09-13T05:43:52.568832Z

Period
94.79 min
Inclination
97.4465°
Eccentricity
0.0001677
Mean motion
15.19149565 rev/d
Perigee alt
507.3 km
Apogee alt
509.6 km
Semi-major
6,886.5 km
B*
6.1096e-5
RAAN
262.3795°
Arg perigee
86.9004°
Mean anomaly
273.2423°
Rev number
47,437

§ Raw data

PAZ1 43215U 18020A   26256.23880288  .00001216  00000+0  61096-4 0  99912 43215  97.4465 262.3795 0001677  86.9004 273.2423 15.19149565474378

JSON: /api/v1/satellites/43215 · /tle

For live sub-satellite position, see the globe view (requires WebGL).

§ Visibility from observer

Set your observer location to see the next 7 days of passes ≥ 10°. The values pass through the URL so the page stays shareable.

No JS? Fill the form by hand. The geolocation button needs JavaScript.

§ Radio — SatNOGS DB

ModeDescriptionDownlinkUplink
FM Mode S - wideband 2.285 GHz
FM Mode X dumps (Spain) 8.150 GHz

2 transmitters · refreshed weekly from db.satnogs.org